Regional Weather Roundup
Issued by NWS

Home | Current Version | Previous Version | Graphics & Text | Print | Product List | Glossary On
Versions: 1 2 3 4 5 6 7 8 9 10 11 12 13 14 15 16 17 18 19 20 21 22 23 24 25 26 27 28 29 30 31 32 33 34 35 36 37 38 39 40 41 42 43 44 45 46 47 48 49 50
000
ASUS43 KFSD 271110
RWRSD

WEATHER ROUNDUP FOR SOUTH DAKOTA
NATIONAL WEATHER SERVICE SIOUX FALLS SD
600 AM CDT WED MAY 27 2015

NOTE: "FAIR" INDICATES FEW OR NO CLOUDS BELOW 12,000 FEET WITH NO
SIGNIFICANT WEATHER AND/OR OBSTRUCTIONS TO VISIBILITY.


SDZ001>005-009-010-012>017-271200-
NORTHWEST AND NORTH CENTRAL SOUTH DAKOTA

CITY           SKY/WX    TMP DP  RH WIND       PRES   REMARKS
BUFFALO          N/A     52  46  80 S6        29.90S
FAITH            N/A     51  44  77 S13       29.97R
MOBRIDGE       CLEAR     50  49  96 CALM      29.94R
$$

SDZ012>016-024>037-041>051-057-063-072>074-271200-
SOUTHWEST AND SOUTH CENTRAL SOUTH DAKOTA

CITY           SKY/WX    TMP DP  RH WIND       PRES   REMARKS
RAPID CTY ARPT MOCLDY    49  47  93 SE5       29.98R
PIERRE         CLEAR     49  46  90 SW3       29.96R
CUSTER         MOCLDY    44  42  93 SW5       30.06R FOG
ELLSWORTH AFB  MOCLDY    53  49  86 SW6       29.97S
PHILIP         MOCLDY    46  44  93 E3        29.98S
PINE RIDGE     CLOUDY    57  49  74 SE6       30.03R
SPEARFISH      FAIR      48  46  93 CALM      29.99S
WINNER         FAIR      58  45  62 SW8       30.00R
$$

SDZ004>011-016>023-039-040-271200-
NORTHEAST SOUTH DAKOTA

CITY           SKY/WX    TMP DP  RH WIND       PRES   REMARKS
ABERDEEN       CLEAR     53  49  86 W6        29.93R
WATERTOWN      CLEAR     58  49  72 W9        29.92R
BROOKINGS      CLEAR     54  48  82 W5        29.96R
SISSETON         N/A     59  49  69 NW6       29.88R
$$

SDZ017-020-022-023-036>040-048>070-271200-
SOUTHEAST SOUTH DAKOTA

CITY           SKY/WX    TMP DP  RH WIND       PRES   REMARKS
SIOUX FALLS    PTCLDY    52  48  86 CALM      29.96R
HURON          CLEAR     50  48  93 CALM      29.95R
CHAMBERLAIN    CLEAR     52  48  87 W6        29.99R
MITCHELL       CLEAR     56  50  80 SW8       29.97R
YANKTON        CLEAR     55  48  76 CALM      29.98R
$$

ABBREVIATIONS USED IN REMARKS
   TC - TEMPERATURE IN CELSIUS
  WCI - WIND CHILL INDEX
   HX - HEAT INDEX
  VSB - VISIBILITY



USA.gov is the U.S. government's official web portal to all federal, state and local government web resources and services.